SVR211 USSS-URWW

Flight info

Callsign SVR211
Flight time 1h 54m
Altitude 34000
Route MIKUS6J MIKUS T764 GITEK T691 UROBO R807 RODUN RODUN1K
Aircraft T154/M-SDGRWY/S

Departure

Time 2026-05-07 15:16
Airport Koltsovo Airport (USSS)

Arrival

Time 2026-05-07 17:11
Airport Volgograd International Airport (URWW)
Time Latitude Longitude Altitude Speed Heading
2026-05-07 15:05 56.74849 60.80739 757 ft 0 kts 265°
2026-05-07 15:06 56.74848 60.80733 757 ft 2 kts 265°
2026-05-07 15:07 56.74847 60.80687 757 ft 4 kts 264°
2026-05-07 15:07 56.74820 60.80656 756 ft 7 kts 192°
2026-05-07 15:07 56.74764 60.80652 755 ft 8 kts 181°
2026-05-07 15:07 56.74701 60.80650 753 ft 8 kts 181°
2026-05-07 15:08 56.74665 60.80614 753 ft 6 kts 249°
2026-05-07 15:08 56.74658 60.80510 752 ft 10 kts 270°
2026-05-07 15:08 56.74658 60.80435 752 ft 11 kts 271°
2026-05-07 15:08 56.74659 60.80282 751 ft 12 kts 269°
2026-05-07 15:09 56.74658 60.80122 749 ft 13 kts 270°
2026-05-07 15:09 56.74659 60.79944 747 ft 14 kts 271°
2026-05-07 15:09 56.74663 60.79762 746 ft 14 kts 272°
2026-05-07 15:09 56.74665 60.79583 747 ft 12 kts 264°
2026-05-07 15:10 56.74658 60.79418 746 ft 13 kts 270°
2026-05-07 15:10 56.74661 60.79214 744 ft 18 kts 271°
2026-05-07 15:10 56.74661 60.79002 744 ft 15 kts 270°
2026-05-07 15:10 56.74661 60.78792 742 ft 17 kts 270°
2026-05-07 15:11 56.74662 60.78553 739 ft 19 kts 271°
2026-05-07 15:11 56.74662 60.78352 738 ft 13 kts 270°
2026-05-07 15:11 56.74661 60.78198 736 ft 10 kts 258°
2026-05-07 15:11 56.74618 60.78154 736 ft 0 kts 179°
2026-05-07 15:12 56.74610 60.78155 736 ft 4 kts 179°
2026-05-07 15:12 56.74562 60.78155 735 ft 8 kts 180°
2026-05-07 15:13 56.74505 60.78156 734 ft 7 kts 179°
2026-05-07 15:13 56.74483 60.78205 735 ft 4 kts 93°
2026-05-07 15:13 56.74483 60.78207 735 ft 0 kts 92°
2026-05-07 15:15 56.74483 60.78229 736 ft 13 kts 92°
2026-05-07 15:15 56.74482 60.78933 740 ft 96 kts 89°
2026-05-07 15:16 56.74479 60.80607 753 ft 163 kts 88°
2026-05-07 15:16 56.74456 60.82887 1138 ft 187 kts 90°
2026-05-07 15:16 56.74370 60.85310 1708 ft 204 kts 91°
2026-05-07 15:16 56.74205 60.88117 2200 ft 236 kts 94°
2026-05-07 15:17 56.73945 60.91046 3047 ft 231 kts 97°
2026-05-07 15:17 56.73627 60.93831 3882 ft 228 kts 100°
2026-05-07 15:17 56.73340 60.96801 4336 ft 244 kts 95°
2026-05-07 15:17 56.72896 60.99811 4946 ft 253 kts 123°
2026-05-07 15:18 56.71594 61.01796 5715 ft 252 kts 162°
2026-05-07 15:18 56.69831 61.02030 6186 ft 260 kts 197°
2026-05-07 15:18 56.68303 61.00397 6816 ft 255 kts 234°
2026-05-07 15:18 56.67628 60.97587 7624 ft 246 kts 268°
2026-05-07 15:19 56.67773 60.94504 8286 ft 246 kts 277°
2026-05-07 15:19 56.68010 60.91473 8965 ft 247 kts 288°
2026-05-07 15:19 56.68537 60.88512 9690 ft 245 kts 288°
2026-05-07 15:19 56.69099 60.85652 10503 ft 242 kts 291°
2026-05-07 15:20 56.69744 60.82778 10957 ft 254 kts 291°
2026-05-07 15:20 56.70371 60.79656 11297 ft 269 kts 290°
2026-05-07 15:20 56.71041 60.76380 11662 ft 284 kts 291°
2026-05-07 15:20 56.71745 60.72964 12244 ft 289 kts 289°
2026-05-07 15:21 56.72366 60.69538 12959 ft 290 kts 289°
2026-05-07 15:21 56.73028 60.65984 13437 ft 300 kts 289°
2026-05-07 15:21 56.73685 60.62388 14019 ft 305 kts 288°
2026-05-07 15:21 56.74307 60.58655 14720 ft 308 kts 286°
2026-05-07 15:22 56.74852 60.54888 15407 ft 310 kts 284°
2026-05-07 15:22 56.75322 60.51046 16079 ft 312 kts 282°
2026-05-07 15:22 56.75775 60.47150 16671 ft 318 kts 284°
2026-05-07 15:22 56.76284 60.43274 17367 ft 322 kts 285°
2026-05-07 15:23 56.76514 60.39231 18043 ft 327 kts 261°
2026-05-07 15:23 56.75591 60.35434 18845 ft 336 kts 232°
2026-05-07 15:23 56.73692 60.32877 19630 ft 345 kts 201°
2026-05-07 15:23 56.71403 60.31658 20423 ft 342 kts 198°
2026-05-07 15:24 56.69141 60.30500 21089 ft 342 kts 198°
2026-05-07 15:24 56.66842 60.29344 21732 ft 343 kts 197°
2026-05-07 15:24 56.64543 60.28204 22379 ft 344 kts 197°
2026-05-07 15:24 56.62270 60.27057 23028 ft 345 kts 197°
2026-05-07 15:25 56.59960 60.25867 23712 ft 344 kts 197°
2026-05-07 15:25 56.57643 60.24658 24337 ft 347 kts 197°
2026-05-07 15:25 56.55306 60.23444 24786 ft 356 kts 197°
2026-05-07 15:25 56.52908 60.22252 25237 ft 366 kts 196°
2026-05-07 15:26 56.50428 60.21021 25929 ft 371 kts 196°
2026-05-07 15:26 56.48000 60.19809 26983 ft 368 kts 196°
2026-05-07 15:26 56.45545 60.18622 27891 ft 369 kts 194°
2026-05-07 15:26 56.43050 60.17459 28643 ft 375 kts 195°
2026-05-07 15:27 56.40556 60.16074 29141 ft 378 kts 202°
2026-05-07 15:27 56.38192 60.13877 29477 ft 385 kts 213°
2026-05-07 15:27 56.36032 60.10983 29787 ft 393 kts 219°
2026-05-07 15:27 56.33968 60.07746 30083 ft 402 kts 221°
2026-05-07 15:28 56.31869 60.04278 30318 ft 414 kts 222°
2026-05-07 15:28 56.29733 60.00652 30633 ft 423 kts 223°
2026-05-07 15:28 56.27595 59.96974 31322 ft 425 kts 223°
2026-05-07 15:28 56.25486 59.93333 31960 ft 424 kts 223°
2026-05-07 15:29 56.23324 59.89598 32421 ft 428 kts 223°
2026-05-07 15:29 56.21191 59.85912 32876 ft 430 kts 224°
2026-05-07 15:29 56.19034 59.82189 33327 ft 433 kts 224°
2026-05-07 15:29 56.16849 59.78422 33783 ft 435 kts 224°
2026-05-07 15:30 56.14674 59.74680 34231 ft 438 kts 224°
2026-05-07 15:30 56.12495 59.70935 34575 ft 442 kts 224°
2026-05-07 15:30 56.10232 59.67053 34610 ft 453 kts 224°
2026-05-07 15:30 56.07939 59.63126 34607 ft 464 kts 224°
2026-05-07 15:31 56.05578 59.59090 34454 ft 474 kts 224°
2026-05-07 15:31 56.03254 59.55007 34484 ft 476 kts 229°
2026-05-07 15:31 56.01420 59.50119 34487 ft 474 kts 245°
2026-05-07 15:31 56.00318 59.44627 34609 ft 476 kts 252°
2026-05-07 15:32 55.97760 59.33735 34578 ft 476 kts 242°
2026-05-07 15:32 55.94766 59.23247 34538 ft 476 kts 242°
2026-05-07 15:33 55.91705 59.12815 34534 ft 478 kts 241°
2026-05-07 15:33 55.88584 59.02339 34515 ft 478 kts 241°
2026-05-07 15:34 55.85461 58.91987 34524 ft 477 kts 241°
2026-05-07 15:34 55.82330 58.81576 34521 ft 477 kts 241°
2026-05-07 15:35 55.79216 58.71257 34525 ft 476 kts 241°
2026-05-07 15:35 55.76077 58.60899 34529 ft 483 kts 241°
2026-05-07 15:36 55.74397 58.55373 34536 ft 491 kts 241°
2026-05-07 15:36 55.73349 58.51936 34542 ft 496 kts 241°
2026-05-07 15:37 55.72673 58.49717 34536 ft 498 kts 241°
2026-05-07 15:37 55.69350 58.38846 34523 ft 502 kts 241°
2026-05-07 15:38 55.67722 58.33535 34525 ft 485 kts 240°
2026-05-07 15:38 55.66138 58.28365 34465 ft 472 kts 240°
2026-05-07 15:38 55.63042 58.18315 34470 ft 468 kts 240°
2026-05-07 15:39 55.59908 58.08197 34500 ft 468 kts 240°
2026-05-07 15:39 55.56791 57.98175 34514 ft 468 kts 240°
2026-05-07 15:40 55.53656 57.88163 34517 ft 468 kts 240°
2026-05-07 15:40 55.50497 57.78152 34519 ft 469 kts 240°
2026-05-07 15:41 55.47333 57.68152 34513 ft 467 kts 240°
2026-05-07 15:41 55.44160 57.58165 34516 ft 468 kts 239°
2026-05-07 15:42 55.40987 57.48218 34512 ft 469 kts 239°
2026-05-07 15:42 55.37796 57.38262 34520 ft 469 kts 239°
2026-05-07 15:43 55.34609 57.28334 34491 ft 470 kts 239°
2026-05-07 15:43 55.31393 57.18359 34504 ft 470 kts 239°
2026-05-07 15:44 55.28178 57.08429 34503 ft 471 kts 239°
2026-05-07 15:44 55.24964 56.98511 34502 ft 471 kts 239°
2026-05-07 15:45 55.21721 56.88558 34494 ft 472 kts 239°
2026-05-07 15:45 55.18475 56.78637 34494 ft 472 kts 239°
2026-05-07 15:46 55.13573 56.63732 34486 ft 473 kts 239°
2026-05-07 15:47 55.10302 56.53836 34485 ft 473 kts 239°
2026-05-07 15:47 55.06993 56.43863 34473 ft 473 kts 239°
2026-05-07 15:48 55.03707 56.33985 34471 ft 474 kts 238°
2026-05-07 15:48 55.00402 56.24058 34455 ft 475 kts 238°
2026-05-07 15:49 54.97078 56.14145 34463 ft 476 kts 238°
2026-05-07 15:49 54.93725 56.04188 34457 ft 477 kts 238°
2026-05-07 15:50 54.90396 55.94348 34460 ft 476 kts 238°
2026-05-07 15:50 54.87009 55.84457 34440 ft 476 kts 238°
2026-05-07 15:51 54.83638 55.74637 34453 ft 477 kts 238°
2026-05-07 15:51 54.80247 55.64760 34460 ft 478 kts 238°
2026-05-07 15:52 54.76843 55.54881 34467 ft 478 kts 238°
2026-05-07 15:52 54.73457 55.45090 34469 ft 477 kts 238°
2026-05-07 15:53 54.70047 55.35272 34469 ft 477 kts 238°
2026-05-07 15:53 54.66631 55.25441 34454 ft 478 kts 237°
2026-05-07 15:54 54.63195 55.15612 34462 ft 478 kts 237°
2026-05-07 15:54 54.59758 55.05816 34474 ft 479 kts 237°
2026-05-07 15:55 54.56312 54.96037 34474 ft 479 kts 237°
2026-05-07 15:55 54.52846 54.86239 34478 ft 479 kts 238°
2026-05-07 15:56 54.49385 54.76487 34474 ft 479 kts 237°
2026-05-07 15:56 54.45916 54.66754 34472 ft 479 kts 238°
2026-05-07 15:57 54.42439 54.57037 34476 ft 479 kts 238°
2026-05-07 15:57 54.38961 54.47356 34482 ft 479 kts 238°
2026-05-07 15:58 54.35470 54.37676 34484 ft 479 kts 238°
2026-05-07 15:58 54.31984 54.28030 34459 ft 480 kts 237°
2026-05-07 15:59 54.28453 54.18296 34473 ft 481 kts 237°
2026-05-07 15:59 54.24945 54.08681 34477 ft 481 kts 237°
2026-05-07 16:00 54.21391 53.98980 34476 ft 482 kts 237°
2026-05-07 16:00 54.17829 53.89295 34479 ft 482 kts 237°
2026-05-07 16:01 54.14276 53.79674 34476 ft 483 kts 237°
2026-05-07 16:01 54.10690 53.70000 34471 ft 483 kts 237°
2026-05-07 16:02 54.07100 53.60352 34469 ft 486 kts 237°
2026-05-07 16:02 54.03470 53.50641 34460 ft 488 kts 237°
2026-05-07 16:03 53.99815 53.40901 34470 ft 489 kts 238°
2026-05-07 16:03 53.96173 53.31224 34445 ft 490 kts 237°
2026-05-07 16:04 53.92508 53.21500 34455 ft 491 kts 237°
2026-05-07 16:04 53.88827 53.11811 34432 ft 491 kts 237°
2026-05-07 16:05 53.85117 53.02165 34444 ft 492 kts 237°
2026-05-07 16:05 53.81384 52.92439 34460 ft 493 kts 236°
2026-05-07 16:06 53.77522 52.82895 34458 ft 492 kts 236°
2026-05-07 16:06 53.73676 52.73337 34458 ft 493 kts 236°
2026-05-07 16:07 53.69841 52.63831 34466 ft 494 kts 236°
2026-05-07 16:07 53.65976 52.54285 34468 ft 492 kts 236°
2026-05-07 16:08 53.62134 52.44828 34466 ft 495 kts 236°
2026-05-07 16:08 53.58255 52.35316 34476 ft 494 kts 236°
2026-05-07 16:09 53.54365 52.25784 34451 ft 495 kts 235°
2026-05-07 16:09 53.50468 52.16291 34469 ft 494 kts 235°
2026-05-07 16:10 53.46568 52.06832 34462 ft 495 kts 235°
2026-05-07 16:10 53.42667 51.97410 34465 ft 494 kts 236°
2026-05-07 16:11 53.38743 51.87968 34460 ft 495 kts 236°
2026-05-07 16:11 53.34830 51.78586 34459 ft 494 kts 236°
2026-05-07 16:12 53.30888 51.69168 34458 ft 496 kts 236°
2026-05-07 16:12 53.26927 51.59745 34462 ft 495 kts 236°
2026-05-07 16:13 53.22974 51.50372 34383 ft 496 kts 236°
2026-05-07 16:13 53.19012 51.41014 34389 ft 496 kts 236°
2026-05-07 16:14 53.15041 51.31662 34372 ft 496 kts 235°
2026-05-07 16:14 53.11077 51.22330 34435 ft 495 kts 235°
2026-05-07 16:15 53.07085 51.12996 34433 ft 498 kts 235°
2026-05-07 16:15 53.03074 51.03655 34424 ft 498 kts 235°
2026-05-07 16:16 52.99053 50.94325 34418 ft 499 kts 236°
2026-05-07 16:16 52.94993 50.84941 34420 ft 499 kts 235°
2026-05-07 16:17 52.90985 50.75711 34411 ft 498 kts 235°
2026-05-07 16:17 52.86905 50.66404 34383 ft 497 kts 235°
2026-05-07 16:18 52.82860 50.57196 34396 ft 498 kts 235°
2026-05-07 16:18 52.78816 50.47992 34397 ft 498 kts 235°
2026-05-07 16:19 52.74723 50.38739 34402 ft 498 kts 235°
2026-05-07 16:19 52.70676 50.29602 34384 ft 498 kts 234°
2026-05-07 16:20 52.66581 50.20355 34387 ft 499 kts 234°
2026-05-07 16:20 52.62515 50.11231 34397 ft 498 kts 234°
2026-05-07 16:21 52.58419 50.02076 34398 ft 498 kts 234°
2026-05-07 16:21 52.54225 49.93057 34403 ft 499 kts 231°
2026-05-07 16:22 52.49757 49.84310 34400 ft 499 kts 231°
2026-05-07 16:22 52.45371 49.75569 34386 ft 500 kts 231°
2026-05-07 16:23 52.40975 49.66837 34385 ft 498 kts 231°
2026-05-07 16:23 52.36550 49.58073 34388 ft 500 kts 232°
2026-05-07 16:24 52.32131 49.49350 34398 ft 498 kts 232°
2026-05-07 16:24 52.27718 49.40668 34398 ft 497 kts 232°
2026-05-07 16:25 52.23301 49.32001 34381 ft 498 kts 231°
2026-05-07 16:25 52.18918 49.23404 34391 ft 497 kts 231°
2026-05-07 16:26 52.14483 49.14762 34398 ft 496 kts 231°
2026-05-07 16:26 52.10056 49.06166 34404 ft 498 kts 231°
2026-05-07 16:27 52.05628 48.97600 34403 ft 498 kts 231°
2026-05-07 16:27 52.01228 48.89114 34402 ft 498 kts 231°
2026-05-07 16:28 51.96777 48.80558 34406 ft 497 kts 231°
2026-05-07 16:28 51.92337 48.72065 34399 ft 496 kts 231°
2026-05-07 16:29 51.87858 48.63545 34363 ft 497 kts 231°
2026-05-07 16:29 51.83374 48.55079 34385 ft 498 kts 231°
2026-05-07 16:30 51.78916 48.46646 34388 ft 497 kts 231°
2026-05-07 16:30 51.74424 48.38168 34382 ft 496 kts 231°
2026-05-07 16:31 51.69919 48.29684 34366 ft 498 kts 231°
2026-05-07 16:31 51.65429 48.21254 34380 ft 497 kts 231°
2026-05-07 16:32 51.60925 48.12845 34389 ft 497 kts 231°
2026-05-07 16:32 51.56419 48.04460 34386 ft 497 kts 231°
2026-05-07 16:33 51.51938 47.96152 34391 ft 495 kts 231°
2026-05-07 16:33 51.47442 47.87841 34396 ft 494 kts 231°
2026-05-07 16:34 51.42936 47.79539 34391 ft 495 kts 231°
2026-05-07 16:34 51.38419 47.71244 34398 ft 496 kts 231°
2026-05-07 16:35 51.33904 47.62983 34400 ft 494 kts 231°
2026-05-07 16:35 51.29400 47.54767 34401 ft 494 kts 231°
2026-05-07 16:36 51.24884 47.46553 34407 ft 494 kts 231°
2026-05-07 16:36 51.20362 47.38359 34398 ft 494 kts 231°
2026-05-07 16:37 51.15815 47.30127 34383 ft 495 kts 230°
2026-05-07 16:37 51.11275 47.21930 34401 ft 497 kts 230°
2026-05-07 16:38 51.06712 47.13735 34407 ft 497 kts 230°
2026-05-07 16:38 51.02138 47.05550 34414 ft 496 kts 230°
2026-05-07 16:39 50.97555 46.97377 34420 ft 496 kts 230°
2026-05-07 16:39 50.92967 46.89220 34422 ft 498 kts 230°
2026-05-07 16:40 50.88346 46.81040 34387 ft 500 kts 230°
2026-05-07 16:40 50.83682 46.72861 34399 ft 502 kts 230°
2026-05-07 16:41 50.79028 46.64678 34409 ft 501 kts 230°
2026-05-07 16:41 50.74378 46.56520 34412 ft 502 kts 230°
2026-05-07 16:42 50.69730 46.48389 34421 ft 502 kts 230°
2026-05-07 16:42 50.65041 46.40213 34420 ft 501 kts 230°
2026-05-07 16:43 50.60366 46.32081 34396 ft 503 kts 230°
2026-05-07 16:43 50.55685 46.23930 34403 ft 504 kts 230°
2026-05-07 16:44 50.51096 46.15661 34410 ft 502 kts 231°
2026-05-07 16:44 50.46518 46.07499 34411 ft 501 kts 230°
2026-05-07 16:45 50.41919 45.99334 34417 ft 501 kts 231°
2026-05-07 16:45 50.37306 45.91171 34418 ft 499 kts 231°
2026-05-07 16:46 50.32715 45.83076 34419 ft 497 kts 231°
2026-05-07 16:46 50.28122 45.75004 34424 ft 496 kts 231°
2026-05-07 16:47 50.23552 45.66996 34425 ft 495 kts 231°
2026-05-07 16:47 50.18975 45.59001 34425 ft 494 kts 231°
2026-05-07 16:48 50.14400 45.51034 34438 ft 493 kts 231°
2026-05-07 16:48 50.09832 45.43102 34297 ft 492 kts 231°
2026-05-07 16:49 50.05291 45.35244 34321 ft 491 kts 231°
2026-05-07 16:49 50.00397 45.27844 34278 ft 496 kts 214°
2026-05-07 16:49 49.97254 45.25536 34304 ft 502 kts 198°
2026-05-07 16:50 49.93830 45.24474 34357 ft 505 kts 188°
2026-05-07 16:50 49.86896 45.22424 34269 ft 508 kts 197°
2026-05-07 16:51 49.80089 45.19575 34288 ft 507 kts 197°
2026-05-07 16:51 49.73338 45.16665 34310 ft 507 kts 197°
2026-05-07 16:52 49.66557 45.13707 34320 ft 508 kts 198°
2026-05-07 16:52 49.59888 45.10215 34315 ft 506 kts 203°
2026-05-07 16:53 49.53392 45.06090 34317 ft 507 kts 203°
2026-05-07 16:53 49.46924 45.02303 33728 ft 494 kts 203°
2026-05-07 16:53 49.43754 45.00463 32680 ft 487 kts 202°
2026-05-07 16:54 49.40628 44.98658 31544 ft 480 kts 202°
2026-05-07 16:54 49.37525 44.96872 30474 ft 472 kts 202°
2026-05-07 16:54 49.34501 44.95135 29448 ft 464 kts 202°
2026-05-07 16:54 49.31505 44.93416 28461 ft 455 kts 201°
2026-05-07 16:55 49.28597 44.91750 27526 ft 446 kts 201°
2026-05-07 16:55 49.25719 44.90103 26609 ft 437 kts 201°
2026-05-07 16:55 49.22921 44.88504 25695 ft 428 kts 201°
2026-05-07 16:55 49.20155 44.86926 24762 ft 420 kts 200°
2026-05-07 16:56 49.17466 44.85393 23783 ft 414 kts 200°
2026-05-07 16:56 49.14817 44.83886 22812 ft 409 kts 200°
2026-05-07 16:56 49.09587 44.80912 20898 ft 396 kts 200°
2026-05-07 16:57 49.07052 44.79474 19958 ft 390 kts 200°
2026-05-07 16:57 49.04543 44.78052 19008 ft 384 kts 200°
2026-05-07 16:57 49.02072 44.76653 18045 ft 378 kts 200°
2026-05-07 16:57 48.99643 44.75279 17091 ft 372 kts 200°
2026-05-07 16:58 48.97256 44.73931 16136 ft 367 kts 200°
2026-05-07 16:58 48.94903 44.72603 15186 ft 361 kts 200°
2026-05-07 16:58 48.92566 44.71286 14237 ft 355 kts 200°
2026-05-07 16:58 48.90308 44.70004 13315 ft 349 kts 200°
2026-05-07 16:59 48.88057 44.68718 12310 ft 346 kts 200°
2026-05-07 16:59 48.85818 44.67413 11282 ft 342 kts 205°
2026-05-07 16:59 48.83936 44.65418 10357 ft 334 kts 229°
2026-05-07 16:59 48.82721 44.62554 9658 ft 315 kts 251°
2026-05-07 17:00 48.81879 44.59637 9390 ft 291 kts 248°
2026-05-07 17:00 48.81074 44.56875 8814 ft 283 kts 249°
2026-05-07 17:00 48.80309 44.54165 8051 ft 282 kts 250°
2026-05-07 17:00 48.79563 44.51465 7376 ft 278 kts 249°
2026-05-07 17:01 48.78815 44.48779 6678 ft 275 kts 249°
2026-05-07 17:01 48.78094 44.46161 6093 ft 268 kts 250°
2026-05-07 17:01 48.77404 44.43588 5447 ft 265 kts 251°
2026-05-07 17:01 48.76842 44.40989 4812 ft 259 kts 269°
2026-05-07 17:02 48.77209 44.38417 4395 ft 248 kts 306°
2026-05-07 17:02 48.78442 44.36726 3912 ft 240 kts 341°
2026-05-07 17:02 48.80029 44.36518 3582 ft 231 kts 17°
2026-05-07 17:02 48.81451 44.37613 3211 ft 228 kts 36°
2026-05-07 17:03 48.82675 44.39106 2976 ft 220 kts 40°
2026-05-07 17:03 48.83796 44.40591 2909 ft 214 kts 41°
2026-05-07 17:03 48.84901 44.42130 2958 ft 215 kts 42°
2026-05-07 17:03 48.86010 44.43653 3089 ft 214 kts 40°
2026-05-07 17:04 48.87132 44.45141 3058 ft 218 kts 40°
2026-05-07 17:04 48.88268 44.46665 3038 ft 219 kts 41°
2026-05-07 17:04 48.89394 44.48228 3042 ft 219 kts 42°
2026-05-07 17:04 48.90520 44.49805 3012 ft 220 kts 41°
2026-05-07 17:05 48.91642 44.51389 3013 ft 220 kts 42°
2026-05-07 17:05 48.92654 44.53120 2903 ft 225 kts 62°
2026-05-07 17:05 48.92906 44.55507 2523 ft 241 kts 101°
2026-05-07 17:05 48.92088 44.57590 2493 ft 228 kts 143°
2026-05-07 17:06 48.90633 44.58338 2405 ft 224 kts 184°
2026-05-07 17:06 48.89136 44.58104 2561 ft 216 kts 186°
2026-05-07 17:06 48.87601 44.57793 2536 ft 226 kts 193°
2026-05-07 17:06 48.86092 44.57133 2611 ft 227 kts 204°
2026-05-07 17:07 48.84909 44.55577 2604 ft 223 kts 236°
2026-05-07 17:07 48.84185 44.53589 2632 ft 215 kts 246°
2026-05-07 17:07 48.83595 44.51562 2583 ft 198 kts 250°
2026-05-07 17:07 48.83070 44.49742 2397 ft 180 kts 251°
2026-05-07 17:08 48.82570 44.48035 2224 ft 173 kts 248°
2026-05-07 17:08 48.82068 44.46453 2071 ft 162 kts 247°
2026-05-07 17:08 48.81593 44.44926 1838 ft 157 kts 248°
2026-05-07 17:08 48.81132 44.43457 1633 ft 153 kts 247°
2026-05-07 17:09 48.80673 44.42005 1468 ft 151 kts 247°
2026-05-07 17:09 48.80236 44.40575 1249 ft 148 kts 248°
2026-05-07 17:09 48.79814 44.39189 1060 ft 142 kts 246°
2026-05-07 17:09 48.79390 44.37846 888 ft 139 kts 246°
2026-05-07 17:10 48.78978 44.36547 688 ft 137 kts 245°
2026-05-07 17:10 48.78566 44.35272 512 ft 132 kts 245°
2026-05-07 17:10 48.78199 44.34102 448 ft 97 kts 244°
2026-05-07 17:10 48.77994 44.33460 435 ft 53 kts 244°
2026-05-07 17:11 48.77854 44.33020 429 ft 41 kts 244°
2026-05-07 17:11 48.77735 44.32643 422 ft 38 kts 244°
2026-05-07 17:11 48.77629 44.32302 412 ft 21 kts 246°
2026-05-07 17:11 48.77575 44.32120 408 ft 21 kts 245°
2026-05-07 17:12 48.77513 44.31913 404 ft 15 kts 250°
2026-05-07 17:12 48.77568 44.31805 402 ft 14 kts 338°
2026-05-07 17:12 48.77640 44.31777 400 ft 9 kts 34°
2026-05-07 17:12 48.77668 44.31852 403 ft 7 kts 65°
2026-05-07 17:13 48.77696 44.31944 404 ft 12 kts 64°
2026-05-07 17:13 48.77735 44.32070 408 ft 14 kts 64°
2026-05-07 17:13 48.77777 44.32202 411 ft 14 kts 64°
2026-05-07 17:13 48.77819 44.32335 413 ft 13 kts 64°
2026-05-07 17:14 48.77868 44.32490 418 ft 20 kts 64°
2026-05-07 17:14 48.77930 44.32681 423 ft 19 kts 63°
2026-05-07 17:14 48.77989 44.32865 426 ft 19 kts 66°
2026-05-07 17:14 48.78044 44.33044 430 ft 18 kts 64°
2026-05-07 17:15 48.78101 44.33221 432 ft 19 kts 64°
2026-05-07 17:15 48.78162 44.33417 437 ft 21 kts 64°
2026-05-07 17:15 48.78229 44.33628 439 ft 22 kts 64°
2026-05-07 17:15 48.78297 44.33841 444 ft 21 kts 63°
2026-05-07 17:16 48.78362 44.34042 449 ft 21 kts 63°
2026-05-07 17:16 48.78412 44.34190 452 ft 7 kts 50°
2026-05-07 17:16 48.78464 44.34198 452 ft 9 kts 347°
2026-05-07 17:16 48.78546 44.34163 451 ft 14 kts 343°
2026-05-07 17:17 48.78633 44.34149 449 ft 12 kts 30°
2026-05-07 17:17 48.78673 44.34267 450 ft 15 kts 69°
2026-05-07 17:17 48.78721 44.34458 454 ft 21 kts 69°
2026-05-07 17:17 48.78769 44.34641 458 ft 13 kts 68°
2026-05-07 17:18 48.78790 44.34709 460 ft 3 kts 22°
2026-05-07 17:18 48.78827 44.34696 459 ft 7 kts 338°
2026-05-07 17:18 48.78841 44.34687 459 ft 0 kts 338°